[[{"header":{"parameterUnit":"m.s-1","parameterCategory":1,"la1":30.2991,"la2":30.254,"lo1":-89.0895,"lo2":-89.0444,"dy":0.0017,"dx":0.0017,"nx":28,"ny":28,"refTime":"2024-07-10T09:00:00:Z","depth":0,"parameterNumber":2,"parameterNumberName":"U-component_of_WINDS"},"data":[0,0,0,0,0,0,0,0,0,0,0,0,0,0,0,0,0,0,0,0,0,0,0,0,0,0,0,0,0,0,0,0,0,0,0,0,0,0,0,0,0,0,0,0,0,0,0,0,0,0,0,0,0,0,0,0,0,0,3.4041,3.4041,0,3.4085,3.4086,3.4086,3.3979,3.3976,3.3972,3.3969,3.4019,3.4023,3.4028,0,0,0,0,0,0,0,0,0,0,0,0,0,3.3864,3.3868,3.4041,3.4041,3.4042,3.4085,3.4086,3.4086,3.398,3.3976,3.3972,3.3968,3.4017,3.4023,3.4028,0,0,0,0,0,0,0,0,0,0,0,0,0,3.3928,3.3869,3.404,3.3994,3.399,3.4085,3.4086,3.4086,3.3981,3.3976,3.3971,3.3966,3.4016,3.4022,3.4029,3.4172,0,0,3.4049,3.4052,0,0,0,0,0,0,0,0,3.3924,3.3935,3.4,3.3997,3.3993,3.4021,3.4041,3.4115,3.3982,3.3984,3.3969,3.3963,3.4024,3.403,3.4049,3.4175,3.4177,3.405,3.4054,3.4057,3.4059,0,0,0,0,0,0,0,3.392,3.3932,3.4058,3.4001,3.3997,3.3971,3.3974,3.4055,3.4032,3.3984,3.3976,3.3983,3.4021,3.4043,3.405,3.4177,3.405,3.4056,3.406,3.4062,3.4417,3.4422,0,0,0,0,0,0,3.3921,3.3929,3.4057,3.406,3.3945,3.3978,3.3982,3.4017,3.4031,3.4028,3.3987,3.3977,3.4034,3.4042,3.4051,3.4216,3.4057,3.4063,3.4067,3.4412,3.4419,3.4424,0,0,0,0,0,0,3.3918,3.3934,3.4055,3.3992,3.4005,3.3986,3.4027,3.4021,3.4043,3.4033,3.4029,3.4014,3.403,3.4042,3.4141,3.4217,3.4066,3.4072,3.4406,3.4414,3.4421,3.4551,0,0,0,0,0,0,3.3913,3.3933,3.3988,3.3994,3.4009,3.4145,3.4032,3.4026,3.4054,3.4042,3.4057,3.4055,3.4027,3.4132,3.4148,3.4223,3.4077,3.4399,3.4409,3.4419,3.454,3.4562,3.4582,0,0,0,0,0,3.3907,3.4025,3.3991,3.4007,3.4077,3.415,3.4158,3.4123,3.4061,3.4115,3.4108,3.4054,3.4206,3.4143,3.416,3.4239,3.4394,3.4406,3.4418,3.453,3.4558,3.4581,0,0,0,0,0,0,3.403,3.4025,3.3988,3.411,3.4131,3.4131,3.4199,3.4154,3.4194,3.4182,3.4137,3.4142,3.4249,3.4254,3.4184,3.4376,3.4289,3.4306,3.4369,3.4395,3.4416,3.4412,3.4083,0,0,0,0,0,3.4071,3.413,3.4122,3.4231,3.4243,3.4219,3.425,3.422,3.4241,3.4249,3.425,3.4273,3.4324,3.436,3.4408,3.454,3.454,3.4602,3.4623,3.464,3.4655,3.4721,3.4747,3.4464,3.4464,3.4464,0,0,3.4158,3.4161,3.4202,3.4256,3.4268,3.4329,3.4228,3.4298,3.4343,3.4261,3.4353,3.4355,3.4377,3.4492,3.4543,3.4499,3.4732,3.4656,3.467,3.4675,3.4736,3.4763,3.4787,3.4472,3.4471,3.447,0,0,3.4345,3.4355,3.4444,3.4458,3.4477,3.446,3.4481,3.4488,3.4484,3.4577,3.4515,3.4567,3.466,3.4676,3.4697,3.4885,3.4836,3.4902,3.5012,3.5077,3.5099,3.5119,3.5183,3.5207,3.4917,3.4917,3.4917,0,3.445,3.4539,3.4497,3.4569,3.4594,3.4519,3.4608,3.4624,3.4659,3.4677,3.4628,3.4738,3.4748,3.4864,3.4909,3.493,3.4951,3.4901,3.5099,3.5118,3.5136,3.5197,3.5222,3.4925,3.4924,3.4923,3.4923,0,3.4665,3.4728,3.4798,3.483,3.4862,3.4944,3.4913,3.495,3.4917,3.4905,3.4998,3.5006,3.5052,3.5078,3.5048,3.5189,3.5161,3.5107,3.5018,3.5171,3.5228,3.5251,3.4936,3.4933,3.4931,3.4929,0,0,3.4934,3.4937,3.4964,3.4975,3.4989,3.5036,3.5113,3.5156,3.5188,3.5214,3.5275,3.5353,3.53,3.5324,3.5294,3.5352,3.5496,3.5289,3.5289,3.5325,3.5649,3.5689,3.5717,3.5464,3.5468,3.5472,3.5646,0,3.5117,3.5246,3.5208,3.5338,3.5394,3.5322,3.5388,3.5403,3.5393,3.5438,3.5427,3.5481,3.541,3.5423,3.5476,3.5468,3.556,3.5455,3.552,3.5523,3.5515,3.5747,3.579,3.5954,3.5668,3.5672,3.5675,0,3.5348,3.5378,3.5514,3.5513,3.5535,3.5595,3.5629,3.5674,3.5688,3.5677,3.5701,3.5658,3.5732,3.5644,3.5744,3.5673,3.5697,3.5696,3.5702,3.5706,3.5607,3.5755,3.6006,3.603,3.571,3.5707,3.5704,0,3.5527,3.5602,3.5691,3.5704,3.5707,3.575,3.5753,3.5763,3.5789,3.5819,3.5836,3.5875,3.5896,3.5927,3.5896,3.5835,3.6,3.591,3.5991,3.5992,3.6029,3.6027,3.6286,3.6048,3.6048,3.6047,3.6047,0,3.5734,3.5819,3.5771,3.5826,3.5917,3.5872,3.5965,3.596,3.5968,3.602,3.5961,3.6011,3.5968,3.6014,3.599,3.6075,3.6086,3.6078,3.607,3.6082,3.6083,3.6097,3.6084,3.6054,3.6052,3.6051,3.605,0,3.595,3.5921,3.6013,3.6006,3.6006,3.6074,3.6068,3.6118,3.6102,3.6168,3.6181,3.6157,3.6208,3.6179,3.6233,3.6216,3.6325,3.6303,3.632,3.6313,3.6395,3.6387,3.6671,3.6705,3.6447,3.645,3.6452,0,3.6083,3.6146,3.6144,3.6173,3.618,3.6229,3.6254,3.6212,3.6241,3.6259,3.6307,3.6352,3.6385,3.647,3.6457,3.6496,3.6473,3.657,3.6479,3.6488,3.6472,3.6468,3.6472,3.6588,3.6591,3.6594,3.6596,0,3.6322,3.6303,3.6342,3.6374,3.6405,3.643,3.6449,3.6477,3.6434,3.647,3.6519,3.6545,3.6596,3.6641,3.6674,3.6677,3.663,3.6624,3.6645,3.6657,3.6663,3.6658,3.6368,3.6618,3.6616,3.6614,3.6613,3.6612,3.6499,3.6549,3.6555,3.6598,3.6607,3.6626,3.6671,3.6659,3.6699,3.6736,3.6708,3.6766,3.6776,3.6814,3.6823,3.6868,3.6829,3.686,3.6867,3.6875,3.6884,3.6657,3.6874,3.6873,3.6873,3.6872,3.6872,0,3.6732,3.6731,3.6771,3.6798,3.6832,3.6781,3.6799,3.683,3.6881,3.6893,3.6926,3.6981,3.7023,3.7012,3.705,3.7087,3.7066,3.7099,3.7095,3.7096,3.6919,3.6896,3.7115,3.7115,3.7115,3.7115,3.7115,3.7115,3.6857,3.6939,3.692,3.7005,3.7003,3.7058,3.7072,3.7088,3.7096,3.716,3.7193,3.7185,3.7187,3.7223,3.7259,3.7254,3.727,3.731,3.7298,3.7133,3.7109,3.7086,3.7064,3.7315,3.7315,3.7471,3.7472,3.7473]},{"header":{"parameterUnit":"m.s-1","parameterCategory":1,"la1":30.2991,"la2":30.254,"lo1":-89.0895,"lo2":-89.0444,"dy":0.0017,"dx":0.0017,"nx":28,"ny":28,"refTime":"2024-07-10T09:00:00:Z","depth":0,"parameterNumber":3,"parameterNumberName":"V-component_of_WINDS"},"data":[0,0,0,0,0,0,0,0,0,0,0,0,0,0,0,0,0,0,0,0,0,0,0,0,0,0,0,0,0,0,0,0,0,0,0,0,0,0,0,0,0,0,0,0,0,0,0,0,0,0,0,0,0,0,0,0,0,0,2.2486,2.2486,0,2.2511,2.2511,2.2512,2.248,2.2479,2.2478,2.2477,2.2503,2.2504,2.2506,0,0,0,0,0,0,0,0,0,0,0,0,0,2.2407,2.2409,2.2485,2.2486,2.2486,2.2511,2.2511,2.2512,2.248,2.2479,2.2478,2.2476,2.2502,2.2504,2.2506,0,0,0,0,0,0,0,0,0,0,0,0,0,2.2438,2.2409,2.2485,2.2473,2.2473,2.2511,2.2511,2.2512,2.2481,2.2479,2.2477,2.2476,2.2501,2.2504,2.2507,2.2558,0,0,2.2515,2.2516,0,0,0,0,0,0,0,0,2.2436,2.2441,2.2475,2.2474,2.2473,2.2491,2.2493,2.2527,2.2481,2.2478,2.2477,2.2475,2.25,2.2503,2.2511,2.2559,2.256,2.2515,2.2516,2.2518,2.2518,0,0,0,0,0,0,0,2.2434,2.244,2.2496,2.2475,2.2475,2.2466,2.2469,2.25,2.2498,2.2478,2.2476,2.2479,2.2499,2.2509,2.2512,2.2561,2.2515,2.2517,2.2519,2.252,2.2649,2.2651,0,0,0,0,0,0,2.2434,2.2438,2.2495,2.2496,2.245,2.2469,2.2472,2.2487,2.2498,2.2498,2.248,2.2477,2.2505,2.2509,2.2512,2.2571,2.2518,2.252,2.2522,2.2647,2.2649,2.2651,0,0,0,0,0,0,2.2432,2.2439,2.2494,2.2467,2.2473,2.2472,2.249,2.2488,2.2498,2.25,2.2499,2.2491,2.2504,2.2509,2.2546,2.2572,2.2521,2.2524,2.2645,2.2648,2.265,2.2691,0,0,0,0,0,0,2.243,2.2439,2.2459,2.2467,2.2474,2.2528,2.2491,2.249,2.2503,2.2499,2.2509,2.2509,2.2503,2.2542,2.2549,2.2575,2.2526,2.2643,2.2646,2.2649,2.2687,2.2694,2.2701,0,0,0,0,0,2.2427,2.247,2.246,2.2467,2.25,2.2529,2.2533,2.2525,2.2505,2.2524,2.2525,2.2509,2.2568,2.2547,2.2554,2.258,2.2641,2.2645,2.2649,2.2684,2.2693,2.2701,0,0,0,0,0,0,2.2465,2.2471,2.246,2.2506,2.2518,2.2524,2.2549,2.2536,2.2553,2.2549,2.2538,2.254,2.258,2.2584,2.256,2.2629,2.2601,2.2607,2.2625,2.2634,2.264,2.2638,2.2528,0,0,0,0,0,2.2478,2.2502,2.2506,2.2547,2.2553,2.255,2.2563,2.2555,2.2566,2.2571,2.2575,2.2586,2.2606,2.262,2.264,2.2688,2.2688,2.2709,2.2716,2.2722,2.2727,2.275,2.2759,2.2665,2.2665,2.2665,0,0,2.2507,2.2513,2.2529,2.2554,2.2562,2.2586,2.2554,2.2582,2.2599,2.2575,2.261,2.2613,2.2625,2.2667,2.2686,2.2671,2.2753,2.2727,2.2732,2.2733,2.2755,2.2764,2.2772,2.2668,2.2667,2.2667,0,0,2.257,2.2578,2.2612,2.262,2.2632,2.2629,2.2637,2.2645,2.2646,2.2681,2.2663,2.2683,2.272,2.2728,2.2737,2.2802,2.2787,2.2809,2.2844,2.2867,2.2874,2.2881,2.2902,2.291,2.2814,2.2814,2.2814,0,2.2604,2.264,2.2631,2.2659,2.2669,2.2648,2.2681,2.269,2.2707,2.2715,2.2699,2.2743,2.275,2.2792,2.2808,2.2816,2.2824,2.2807,2.2874,2.288,2.2886,2.2906,2.2914,2.2816,2.2816,2.2816,2.2815,0,2.268,2.2705,2.273,2.2747,2.2761,2.2792,2.2786,2.2801,2.2792,2.2791,2.2825,2.2832,2.2851,2.2861,2.2854,2.2902,2.2893,2.2876,2.2847,2.2898,2.2916,2.2924,2.282,2.2819,2.2818,2.2817,0,0,2.2768,2.2778,2.2787,2.2794,2.2804,2.2823,2.2852,2.2871,2.2883,2.2895,2.2918,2.2949,2.2932,2.2943,2.2935,2.2955,2.3003,2.2935,2.2935,2.2946,2.3055,2.3067,2.3076,2.2994,2.2995,2.2996,2.3054,0,2.283,2.288,2.2871,2.2919,2.2941,2.292,2.2945,2.2954,2.2953,2.2971,2.297,2.2991,2.2969,2.2975,2.2994,2.2994,2.3025,2.2989,2.3013,2.3014,2.301,2.3086,2.3099,2.3153,2.3061,2.3062,2.3063,0,2.291,2.2924,2.2974,2.2979,2.2988,2.301,2.3025,2.3043,2.3052,2.305,2.306,2.3048,2.3076,2.3047,2.3084,2.306,2.3069,2.307,2.3072,2.3073,2.3041,2.3087,2.317,2.3177,2.3075,2.3074,2.3073,0,2.2967,2.2999,2.3032,2.3038,2.3045,2.3061,2.3065,2.3072,2.3083,2.3096,2.3103,2.3119,2.3128,2.3141,2.3133,2.3113,2.317,2.3142,2.3168,2.3168,2.318,2.3179,2.3264,2.3189,2.3189,2.3189,2.3189,0,2.3036,2.3067,2.3057,2.3077,2.311,2.31,2.3133,2.3134,2.314,2.316,2.3143,2.3162,2.3152,2.3169,2.3164,2.3193,2.3198,2.3196,2.3194,2.3197,2.3197,2.3202,2.3197,2.3191,2.319,2.319,2.319,0,2.3105,2.31,2.3134,2.3138,2.3139,2.3163,2.3166,2.3184,2.3182,2.3206,2.3212,2.3208,2.3227,2.3221,2.3243,2.3239,2.3276,2.327,2.3273,2.3271,2.3297,2.3294,2.3386,2.3397,2.3317,2.3318,2.3318,0,2.3149,2.3172,2.3177,2.3188,2.3193,2.3212,2.3223,2.3213,2.3225,2.3235,2.3252,2.327,2.3283,2.3315,2.3314,2.333,2.3323,2.3354,2.3325,2.3326,2.3321,2.3319,2.332,2.336,2.3361,2.3361,2.3362,0,2.3226,2.3222,2.3238,2.3253,2.3266,2.3277,2.3287,2.3297,2.3287,2.3301,2.332,2.3331,2.3352,2.3369,2.3383,2.3386,2.3372,2.3371,2.3378,2.338,2.338,2.3378,2.3287,2.3369,2.3368,2.3368,2.3367,2.3367,2.3283,2.3301,2.3307,2.3325,2.3331,2.334,2.3356,2.3355,2.3371,2.3387,2.338,2.3402,2.3408,2.3425,2.343,2.3447,2.3434,2.3445,2.3447,2.3449,2.3451,2.3378,2.3449,2.3449,2.3449,2.3449,2.3449,0,2.3358,2.336,2.3376,2.339,2.3403,2.3389,2.3398,2.341,2.3429,2.3436,2.345,2.3471,2.3487,2.3487,2.3502,2.3515,2.3508,2.3519,2.3517,2.3517,2.3462,2.3454,2.3523,2.3523,2.3523,2.3523,2.3523,2.3523,2.3398,2.3427,2.3424,2.3455,2.3458,2.3478,2.3485,2.3492,2.3497,2.3522,2.3535,2.3534,2.3538,2.3553,2.3567,2.3566,2.3571,2.3584,2.3581,2.3529,2.3522,2.3514,2.3507,2.3586,2.3586,2.3634,2.3634,2.3635]}]]